www.pogodaiklimat.ru

Погода и климат >> Архив погоды >> Россия >> Чукотка >> Анадырь


АРХИВ ПОГОДЫ в Анадыре

Время (UTC), дата Ветер
(напр.,м/с)
 
Видим.   Явления Облачность Т
(С)
Тd
(С)
f
(%)
Тe
(С)
Тes
(С)
Комфортность P
(гПа)
Po
(гПа)
Тmin
(С)
Tmax
(С)
R
(мм)
R24
(мм)
S
(см)
09 19.03 З 9-10
{11}
50 км позёмок 5/0
[Ci fib]
-26.9 -30.0 75 -42 -42 опасность
обморожения
1006.8 998.4
12 19.03 З 10-13
{14}
50 км позёмок 9/8 600 м
[Cb cap Ac trans]
-24.2 -27.3 75 -39 -39 опасность
обморожения
1008.4 1000.0
15 19.03 З 10-12
{13}
50 км позёмок 10/5 600 м
[Cb cap Ac und]
-23.5 -26.7 75 -38 -38 опасность
обморожения
1010.2 1001.8
18 19.03 СЗ 10-11
{12}
50 км позёмок 9/9 600 м
[Cb cap]
-22.3 -25.5 75 -37 -37 опасность
обморожения
1012.8 1004.5 -27.3 38
21 19.03 СЗ 7
{11}
50 км {метель} 9/8 600 м
[Cb cap Ac trans]
-21.1 -24.4 75 -33 -33 опасность
обморожения
1015.5 1007.2
00 20.03 З 7
{9}
50 км {метель} 6/0
[Ac trans Ci fib]
-20.3 -23.6 75 -32 -31 опасность
обморожения
1017.6 1009.3
03 20.03 СЗ 3
{8}
50 км 6/0
[Ac trans Ci fib]
-18.5 -21.8 75 -26 -24 по сезону 1019.1 1010.8
06 20.03 С 1
{5}
50 км 4/0
[Ac trans Ci fib]
-20.8 -24.1 75 -24 -24 по сезону 1020.8 1012.5 -17.1
09 20.03 С 2
{4}
50 км 3/0
[Ci fib]
-21.2 -25.2 70 -27 -27 по сезону 1022.5 1014.2
12 20.03 штиль 0
{3}
50 км 4/0
[Ci fib]
-20.9 -24.2 75 -21 -21 тепло 1023.5 1015.1
15 20.03 СЗ 3
{5}
50 км 3/0
[Ci fib]
-23.0 -26.3 74 -31 -31 опасность
обморожения
1024.1 1015.5
18 20.03 СЗ 5
{7}
50 км 3/0
[Ci fib]
-26.1 -28.5 80 -38 -38 опасность
обморожения
1024.1 1015.5 -26.1 38
21 20.03 СЗ 6
{7}
50 км 3/0
[Ci fib]
-28.9 -32.0 74 -42 -41 опасность
обморожения
1024.6 1015.8 -28.9
00 21.03 СЗ 7
{9}
50 км 3/0
[Ci fib]
-26.0 -29.1 75 -39 -38 опасность
обморожения
1024.3 1015.7
03 21.03 СЗ 6
{9}
50 км 3/0
[Ci fib]
-23.5 -26.7 75 -35 -34 опасность
обморожения
1024.3 1015.7
06 21.03 СЗ 6
{8}
50 км 4/0
[Ci fib]
-24.6 -27.7 75 -37 -37 опасность
обморожения
1024.6 1016.0 -23.3
09 21.03 СЗ 6
{8}
50 км 3/0
[Ac trans Ci fib]
-26.9 -30.0 75 -40 -40 опасность
обморожения
1025.4 1016.8
12 21.03 СЗ 7
{9}
50 км 4/0
[Ac trans Ci fib]
-27.9 -30.9 75 -42 -42 опасность
обморожения
1025.7 1016.9
15 21.03 СЗ 7
{8}
50 км 3/0
[Ac trans Ci fib]
-28.4 -31.5 75 -43 -43 опасность
обморожения
1025.1 1016.3
18 21.03 СЗ 8
{9}
50 км 3/0
[Ci fib]
-30.7 -34.3 71 -46 -46 опасность
обморожения
1024.8 1016.0 -30.7 38
21 21.03 СЗ 8
{9}
50 км 3/0 600 м
[Ci fib]
-29.4 -33.1 70 -45 -44 опасность
обморожения
1024.9 1016.1
00 22.03 СЗ 6
{9}
50 км 3/0
[Ci fib]
-27.0 -30.1 75 -40 -38 опасность
обморожения
1023.9 1015.3
03 22.03 СЗ 8
{10}
50 км 3/0
[Ci fib]
-24.4 -27.6 75 -38 -38 опасность
обморожения
1023.0 1014.5
06 22.03 СЗ 9-10
{10}
50 км 3/0
[Ci fib]
-25.2 -28.4 75 -40 -40 опасность
обморожения
1022.9 1014.4 -23.9
09 22.03 СЗ 9-10
{10}
50 км 3/0
[Ci fib]
-27.0 -30.1 75 -42 -42 опасность
обморожения
1022.0 1013.5
12 22.03 СЗ 9-10
{11}
50 км 5/0
[Ci fib]
-26.6 -29.7 75 -42 -42 опасность
обморожения
1020.7 1012.2
15 22.03 СЗ 9-11
{11}
50 км 3/0
[Ci fib]
-27.3 -30.4 75 -43 -43 опасность
обморожения
1019.3 1010.8
18 22.03 СЗ 10-11
{12}
50 км 3/0
[Ci fib]
-27.7 -30.8 75 -44 -44 опасность
обморожения
1018.1 1009.4 -28.0 38
21 22.03 С 12-13
{14}
50 км позёмок 4/0
[Ci fib]
-26.5 -29.7 74 -43 -43 опасность
обморожения
1016.0 1007.5
00 23.03 СЗ 10-11
{14}
50 км позёмок 4/0
[Ci fib]
-22.6 -25.8 75 -37 -37 опасность
обморожения
1014.4 1005.9
03 23.03 С 12-13
{16}
50 км позёмок 5/0
[Ci fib]
-20.9 -24.2 75 -36 -36 опасность
обморожения
1011.8 1003.5
06 23.03 С 10-12
{15}
50 км позёмок 9/0
[Ac lent Ci]
-21.2 -24.4 75 -35 -35 опасность
обморожения
1010.8 1002.5 -20.2
09 23.03 СЗ 6
{15}
50 км {метель} 8/0
[Ac trans Ci fib]
-23.3 -26.5 75 -35 -35 опасность
обморожения
1010.5 1002.1
12 23.03 СЗ 8
{10}
50 км {метель} 9/4 600 м
[Sc Ac trans Ci fib]
-22.7 -25.9 75 -36 -36 опасность
обморожения
1009.5 1001.1
15 23.03 СЗ 5
{9}
20 км слаб. ливневой снег 10/8 600 м
[Cb cap Ac und]
-22.3 -24.8 80 -33 -33 опасность
обморожения
1008.3 1000.0
18 23.03 З 4
{6}
50 км {ливн. осадки} 9/9 600 м
[Cb cap]
-22.0 -24.5 80 -31 -31 опасность
обморожения
1007.4 999.1 -23.7 0.0 38
21 23.03 С 6
{8}
50 км {ливн. осадки} 9/9 600 м
[Cb cap]
-19.9 -22.5 80 -31 -31 опасность
обморожения
1005.7 997.4
00 24.03 СВ 11-14
{14}
15 км слаб. ливневой снег {метель} 10/10 600 м
[Cb cap]
-14.4 -17.1 80 -27 -27 по сезону 1003.8 995.7
03 24.03 СВ 13-15
{17}
12 км слаб. ливневой снег {метель} 10/10 600 м
[Cb cap]
-13.7 -16.4 80 -27 -27 по сезону 1001.3 993.3
06 24.03 СВ 12-15
{17}
4000 м слаб. ливневой снег {метель} 10/10 600 м
[Cb cap]
-13.3 -15.3 85 -26 -26 по сезону 999.1 991.1 -13.3 2
09 24.03 СВ 17-21
{21}
5000 м слаб. ливневой дождь со снегом {морось} 10/10 600 м
[Cb cap]
-13.1 -15.1 85 -27 -27 по сезону 996.6 988.6
12 24.03 СВ 20-23
{25}
500 м слаб. ливневой снег {метель} 10/10 300 м
[Cb cap]
-12.9 -14.9 85 -28 -28 по сезону 994.4 986.4
15 24.03 СВ 20-26
{26}
500 м слаб. ливневой снег {метель} 10/10 300 м
[Cb cap]
-11.7 -13.7 85 -26 -26 по сезону 992.4 984.6
18 24.03 СВ 18-22
{26}
600 м слаб. ливневой снег {метель} 10/10 300 м
[Cb cap]
-11.6 -13.6 85 -25 -25 по сезону 991.4 983.6 -13.3 3 39
21 24.03 СВ 15-19
{24}
500 м слаб. ливневой снег {метель} 10/10 300 м
[Cb cap]
-11.2 -13.2 85 -24 -24 по сезону 991.2 983.4
00 25.03 СВ 13-16
{19}
600 м слаб. ливневой снег {метель} 10/10 300 м
[Cb cap]
-10.7 -12.7 85 -23 -23 по сезону 992.1 984.3
03 25.03 СВ 11-14
{17}
1000 м слаб. ливневой снег {метель} 10/10 300 м
[Cb cap]
-9.4 -11.0 88 -20 -20 по сезону 993.2 985.3
06 25.03 СВ 7
{15}
50 км позёмок {ливн. осадки} 9/9 600 м
[Cb cap]
-9.3 -10.9 88 -18 -18 тепло 994.2 986.3 -8.8 4
09 25.03 С 2
{9}
50 км {метель} 9/9 600 м
[Cb cap]
-7.1 -9.6 82 -11 -11 тепло 994.9 987.2
12 25.03 СВ 4
{7}
20 км слаб. ливневой снег {метель} 10/10 600 м
[Cb cap]
-4.3 -6.2 87 -11 -11 тепло 994.3 986.6
15 25.03 СВ 14-17
{19}
6000 м метель {ливн. осадки} 10/10 600 м
[Cb cap]
-7.9 -9.3 90 -20 -20 тепло 990.9 983.1
18 25.03 СВ 18-22
{23}
300 м слаб. ливневой снег {метель} 10/10 300 м
[Cb cap]
-8.1 -9.5 90 -21 -21 тепло 986.5 978.7 -10.3 1 42
21 25.03 СВ 25-32
{37}
<100 м сильная метель {ливн. осадки} ?/? -8.2 -9.6 90 -23 -23 по сезону 978.7 971.0
00 26.03 В 17-22
{33}
900 м слаб. ливневой снег {метель} 9/9 600 м
[Cb cap]
-1.4 -2.8 90 -12 -12 тепло 974.4 967.0
03 26.03 В 25-30
{32}
2000 м слаб. ливневой снег {метель} 10/10 600 м
[Cb cap]
-0.1 -1.6 90 -12 -12 тепло 970.3 963.0
06 26.03 ЮВ 26-30
{35}
1000 м слаб. ливневой снег {метель} 10/10 600 м
[Cb cap]
-0.2 -1.1 94 -12 -12 тепло 968.4 961.1 +0.1

 

Местоположение метеостанции Анадырь (Чукотка, Россия): широта 64.78 долгота 177.50 высота над уровнем моря 61 м.

В архиве по умолчанию представлена погода в Анадыре за последнюю неделю. Архивные данные за месяц целиком и за предыдущие месяцы, начиная с января 2011 года, Вы можете получить, выбрав интересующий диапазон дат из раскрывающегося списка и нажав кнопку "Ввод!".


*Определитесь, кто Вы:
робот инопланетянин человек

Внимание! Время в таблицах - всемирное. Для получения местного времени необходимо прибавить поправку, которая равна 12 ч.

Смотрите также архив погоды в соседних городах и на ближайших метеорологических станциях:

Погода в Анадыре АМС (Чукотка, Россия) (7 км)
Погода в Канчалане (Чукотка, Россия) (58 км)
Погода в Танюрере (Чукотка, Россия) (147 км)
Погода в Эньмувееме (Чукотка, Россия) (263 км)
Погода в Марково (Чукотка, Россия) (337 км)
Погода в Майской (Чукотка, Россия) (457 км)
Погода в Слаутном (Камчатский край, Россия) (504 км)
Погода в Паляваам-Глубокой (Чукотка, Россия) (505 км)
Погода в Илирнее (Чукотка, Россия) (513 км)
Погода в Комсомольской (Чукотка, Россия) (525 км)

Пояснения к столбцам:

Ветер - указаны скорость ветра в м/с - средняя за 10 мин, порывы в срок и между сроками (в фигурных скобках) и направление, откуда дует ветер: С - северный, СВ - северо-восточный, В - восточный, ЮВ - юго-восточный, Ю - южный, ЮЗ - юго-западный, З - западный, СЗ - северо-западный.
Видимость - горизонтальная дальность видимости в метрах или километрах. При видимости от 1 до 10 км при отсутствии осадков обычно наблюдается дымка, при ухудшении видимости до 1 км и менее - туман. В сухую погоду видимость может ухудшаться дымом, пылью или мглою.
Явления - указаны атмосферные явления, наблюдавшиеся в срок или в последний час перед сроком; фигурными скобками обозначены явления, наблюдавшиеся между сроками (за 1-3 часа до срока); квадратными скобками обозначены град или гололедные отложения с указанием их диаметра в мм.
Облачность - указаны через наклонную черту общая и нижняя облачность в баллах и высота нижней границы облаков в метрах; квадратными скобками обозначены формы облаков: Ci - перистые, Cs - перисто-слоистые, Cc - перисто-кучевые, Ac - высококучевые, As - высокослоистые, Sc - слоисто-кучевые, Ns - слоисто-дождевые, Cu - кучевые, Cb - кучево-дождевые. Подробнее классификацию облаков см. в Атласе облаков (PDF).
T - Температура воздуха - температура, измеренная на высоте 2 м над землей.
Td - Температура точки росы - температура, при понижении до которой содержащийся в воздухе водяной пар достигнет насыщения.
f - Относительная влажность воздуха - влажноcть воздуха, измеренная на высоте 2 м над землей.
Te - Эффективная температура - температура, которую ощущает одетый по сезону человек в тени. Характеристика душности погоды. При расчете учитывается влияние влажности воздуха и скорости ветра на теплоощущения человека.
Tes - Эффективная температура на солнце - температура, которую ощущает человек, с поправкой на солнечный нагрев. Характеристика знойности погоды. Зависит от высоты солнца над горизонтом, облачности и скорости ветра. Ночью, в пасмурную погоду, а также при ветре 12 м/с и более поправка равна нулю.
P - Атмосферное давление - приведенное к уровню моря атмосферное давление.
Po - Атмосферное давление - измеренное на уровне метеостанции атмосферное давление.
Tmin - Минимальная температура - минимум температуры воздуха на высоте 2 м над землей.
Tmax - Максимальная температура - максимум температуры воздуха на высоте 2 м над землей.
R - Количество осадков - Количество выпавших осадков за период времени, мм. При наведении курсора мыши на число - период времени, за который выпало указанное количество осадков.
R24 - Количество осадков - Количество выпавших осадков за 24 часа, мм.
S - Снежный покров - Высота снежного покрова, см. При наведении курсора мыши на число - состояние снежного покрова и степень покрытия местности в баллах.